Wind_Speed
83 87 92 93 95 89 86 88 91 97 101 106 108 110 110 109 110 113 116 119 123 126 128 123 115 109 99 90 85 79 72 64 59 63 55 55 52 51 52 56 60 64 65 68
87 89 90 93 95 88 91 96 100 103 109 112 116 115 112 112 113 118 119 125 127 127 124 114 107 99 93 86 81 75 70 62 53 57 49 50 47 47 49 54 57 60 63 66
87 92 95 94 89 91 96 102 103 106 108 115 117 116 116 117 119 120 125 129 128 123 114 106 98 93 87 82 78 71 63 57 51 51 47 43 43 44 47 51 54 57 61 66
94 97 93 90 92 95 99 103 104 110 113 118 120 119 120 123 122 126 132 127 120 113 105 97 93 87 83 75 71 64 58 52 48 46 43 40 40 41 44 47 50 54 58 64
100 101 97 95 96 101 105 109 110 113 117 123 124 123 125 129 132 134 128 116 112 107 99 91 86 82 74 70 64 59 53 47 44 42 39 36 37 39 42 44 46 51 57 64
102 99 98 99 102 107 112 116 120 122 120 124 124 124 128 130 131 121 117 110 105 98 92 86 80 75 69 65 59 54 48 43 40 37 35 33 35 38 40 42 46 49 55 62
105 99 102 106 111 114 119 124 130 127 127 126 127 128 126 127 118 111 109 102 95 90 87 82 74 69 63 58 53 49 43 37 35 34 32 32 33 36 38 41 46 48 54 61
100 104 109 114 119 124 123 132 134 135 127 128 130 126 123 115 109 106 99 96 91 85 81 74 68 62 57 53 48 42 38 36 33 32 31 31 32 35 37 40 44 48 53 60
108 112 116 121 125 130 131 136 137 131 128 129 128 123 115 110 103 98 95 90 85 81 73 68 64 58 53 48 44 40 37 34 31 31 30 31 32 34 37 39 44 49 53 60
113 116 120 126 130 133 136 138 134 134 130 126 119 112 108 102 99 93 88 84 80 74 68 64 59 54 48 44 41 39 34 31 29 28 30 31 32 34 37 40 43 48 53 59
119 121 124 129 137 138 132 131 132 131 122 114 111 107 101 97 92 87 82 77 73 68 63 58 54 50 45 42 38 35 32 29 27 26 29 31 32 34 36 38 41 46 52 58
121 125 129 137 133 130 131 132 124 118 113 107 103 100 95 89 86 81 75 71 67 62 57 53 50 47 42 38 34 32 30 29 28 25 27 30 32 34 35 38 41 46 51 55
125 130 136 135 129 129 128 121 115 112 107 101 96 92 89 84 79 74 69 64 60 56 51 49 46 43 40 37 34 31 29 27 26 26 26 29 32 35 36 38 41 45 50 55
131 136 136 129 129 122 117 113 110 104 100 94 91 86 81 76 72 68 63 59 55 52 48 45 41 39 38 36 33 30 29 28 26 25 26 28 32 35 38 38 40 44 48 53
136 136 130 128 120 115 111 106 102 97 93 89 85 80 75 70 64 59 55 53 52 48 44 42 39 36 34 32 30 29 28 27 25 25 26 28 30 33 37 39 40 43 46 51
134 129 123 115 112 108 105 101 94 91 85 81 76 72 68 63 59 54 52 48 46 45 42 38 36 34 32 30 29 28 27 25 25 25 24 26 29 32 35 39 41 42 45 49
129 117 109 108 106 102 97 93 89 84 78 73 69 65 59 56 52 49 45 43 42 40 38 36 33 32 32 31 28 27 25 23 23 23 23 25 27 30 34 37 39 42 44 46
115 111 107 103 98 94 90 85 80 76 72 66 62 58 55 52 47 43 41 39 38 36 34 32 31 30 30 28 26 24 22 21 21 22 24 24 26 29 32 35 37 40 42 45
110 106 103 98 93 88 84 78 74 69 64 60 57 54 51 46 42 39 37 35 33 32 32 31 28 27 26 25 24 21 19 19 20 21 21 24 26 27 30 32 35 38 40 42
106 102 97 92 87 81 77 72 66 62 58 55 53 49 46 43 41 37 32 30 31 31 30 26 25 24 22 21 21 19 18 18 19 19 20 21 24 25 28 31 33 36 38 40
100 95 90 84 79 75 70 65 60 56 53 50 47 45 42 39 36 33 31 30 30 27 25 23 22 20 18 18 17 16 16 16 16 17 18 20 22 24 26 28 30 32 35 37
93 86 81 77 72 67 62 58 55 53 50 46 44 40 37 34 33 31 31 30 28 25 23 21 19 17 15 16 14 13 13 14 15 15 16 18 19 21 23 25 28 30 32 34
83 78 74 69 64 59 57 56 52 48 46 43 39 35 33 32 31 31 29 27 25 24 21 19 17 16 14 13 12 11 12 14 14 15 15 15 16 18 20 23 25 28 30 32
75 71 65 61 59 57 55 51 48 46 43 39 35 33 31 30 30 28 26 24 22 21 20 19 17 15 14 14 13 13 12 12 13 13 14 14 15 16 18 20 22 25 27 29
69 64 60 57 55 51 48 46 44 42 37 33 31 31 29 28 27 26 24 22 21 21 20 18 17 15 14 13 13 13 12 12 11 10 10 12 13 15 16 18 20 22 24 26
61 58 55 53 49 46 44 42 39 34 33 31 30 28 27 27 26 24 23 22 20 20 19 18 16 15 13 13 12 12 12 11 10 9 10 10 12 13 15 16 17 19 20 23
55 53 50 48 46 43 40 38 35 34 31 28 28 28 26 26 24 23 22 21 20 19 18 17 16 14 13 12 11 11 10 10 10 9 9 10 10 11 13 14 15 16 17 19
Wind_Direction
316 314 317 315 317 316 314 314 315 317 316 316 316 316 314 311 310 310 310 311 313 315 314 313 313 311 310 308 306 303 300 297 293 284 280 273 267 258 251 245 238 235 230 226
316 316 316 314 317 315 314 316 316 316 316 316 316 316 313 312 312 311 313 313 314 313 313 312 311 311 310 308 306 305 302 298 293 284 278 273 266 256 247 242 236 231 227 223
318 318 315 315 316 315 314 315 315 315 315 315 316 314 313 314 315 315 314 313 313 312 312 312 312 311 309 308 306 304 302 297 291 284 280 270 263 254 246 240 234 228 224 220
317 317 316 315 315 316 315 315 314 314 315 316 315 314 315 316 316 316 314 313 312 312 312 313 311 310 309 307 304 303 300 296 289 282 277 269 261 253 246 239 233 227 222 218
316 317 315 317 316 315 314 315 314 315 316 316 317 317 316 315 316 315 313 313 312 312 311 311 310 309 309 307 305 302 299 294 287 281 275 265 257 250 244 237 231 223 218 217
318 317 317 315 316 316 315 315 316 317 315 316 316 315 315 316 314 314 312 312 312 311 311 311 311 309 309 306 304 300 297 292 285 278 270 261 252 247 241 235 230 222 215 213
318 316 317 317 316 316 316 316 318 316 316 316 316 316 315 314 312 313 312 312 312 311 311 312 310 309 306 304 302 299 295 288 280 273 266 258 250 245 238 232 228 221 214 211
317 319 317 316 317 317 317 316 317 316 317 316 315 315 314 313 314 313 313 312 312 312 311 310 309 308 306 304 301 298 293 286 279 271 263 256 247 242 236 230 225 221 214 210
318 318 317 316 316 316 316 316 315 316 316 316 315 315 314 313 313 313 312 312 311 311 310 310 310 308 306 303 300 297 292 285 278 269 261 252 245 240 236 229 221 220 214 211
318 316 316 316 315 316 315 314 315 315 315 315 315 314 314 314 313 313 313 312 311 312 312 311 308 307 304 302 300 296 291 284 276 267 259 249 243 236 233 229 223 219 216 212
317 316 316 317 316 315 315 315 315 313 314 314 314 313 314 314 313 312 312 312 311 311 310 308 307 305 304 302 298 294 290 283 275 264 257 248 240 235 232 229 224 221 218 214
315 317 314 315 316 315 317 315 314 313 314 314 314 313 313 312 312 312 312 311 311 310 309 307 306 305 304 300 296 292 287 282 276 263 253 248 239 235 230 228 225 221 220 219
315 314 316 315 317 317 316 315 314 314 314 315 314 313 313 313 313 313 312 311 310 309 308 306 305 304 302 299 296 291 286 280 273 266 254 246 240 234 231 227 225 222 220 220
315 316 315 317 316 316 314 314 315 315 315 315 314 313 313 313 313 312 313 312 310 309 309 306 305 302 299 296 294 291 286 278 272 264 256 245 238 234 231 228 225 224 221 220
317 317 317 316 315 315 315 315 315 315 315 314 313 314 314 314 313 313 312 311 309 309 307 304 302 299 296 294 291 287 282 278 272 261 255 248 240 235 231 229 225 224 222 221
318 317 317 316 316 316 317 316 316 315 315 314 313 314 314 314 315 314 313 311 309 307 306 304 302 300 298 295 291 286 281 277 271 261 255 249 242 237 232 230 228 224 223 222
317 317 316 317 317 317 317 316 316 315 315 315 315 314 315 314 314 313 312 310 308 307 305 305 304 303 300 296 292 284 281 275 269 261 252 246 243 238 235 231 229 227 224 223
317 318 318 319 319 318 317 317 316 316 317 317 316 317 316 316 315 315 314 311 309 307 308 308 307 303 298 296 291 285 278 271 265 260 253 246 242 238 236 234 230 228 226 224
320 319 320 320 320 318 318 318 318 318 318 319 319 319 318 317 317 317 316 313 311 311 310 311 307 303 301 296 289 282 273 265 262 258 251 247 242 238 235 235 234 230 228 227
320 321 320 320 319 319 319 319 320 320 321 321 320 320 320 320 320 320 319 315 313 312 311 309 306 303 300 293 288 285 279 270 265 260 252 245 242 239 237 236 235 234 231 229
321 321 321 320 320 321 322 322 322 322 322 323 323 323 322 322 322 322 322 319 318 317 314 311 307 304 300 296 293 289 283 278 270 262 256 248 244 239 235 235 236 235 233 232
321 321 322 322 323 323 322 323 325 326 326 326 326 325 326 326 325 325 325 323 322 321 318 316 313 310 305 300 298 295 286 279 273 268 262 255 247 241 237 237 237 238 238 236
322 323 323 323 323 323 327 328 328 327 328 329 329 329 330 330 329 329 329 328 326 326 324 324 322 319 315 309 304 298 289 284 278 270 263 252 248 245 242 241 241 242 242 243
324 324 324 325 328 329 330 330 331 332 333 333 333 333 333 334 333 334 334 335 334 333 331 331 330 325 320 315 309 304 296 288 282 275 263 249 242 243 244 244 243 243 244 245
326 326 328 330 330 330 331 332 333 334 334 335 337 338 337 337 338 338 339 341 342 341 339 335 332 328 324 318 315 315 312 306 294 278 261 256 255 252 249 249 250 248 248 247
327 328 330 331 333 335 336 336 336 339 341 341 339 340 344 345 343 343 346 346 347 346 344 341 338 335 331 325 320 320 320 319 311 292 276 266 261 257 257 256 254 253 251 250
330 332 333 336 337 337 338 341 345 346 344 344 345 348 347 347 350 353 354 354 353 352 351 348 346 342 338 336 333 328 325 324 322 310 291 278 270 264 262 261 259 257 254 251
Height
10545 10532 10521 10508 10493 10479 10468 10457 10444 10430 10415 10400 10383 10366 10349 10333 10315 10298 10283 10265 10247 10229 10211 10198 10181 10161 10143 10133 10120 10107 10101 10099 10093 10076 10078 10074 10076 10080 10083 10088 10095 10105 10119 10136
10528 10515 10502 10489 10476 10463 10449 10436 10421 10405 10389 10372 10357 10338 10319 10305 10290 10271 10254 10233 10218 10202 10183 10165 10155 10135 10119 10104 10093 10086 10075 10070 10069 10054 10058 10053 10055 10058 10062 10067 10074 10085 10099 10118
10509 10496 10482 10469 10456 10443 10428 10416 10401 10387 10370 10351 10331 10312 10292 10276 10261 10246 10223 10205 10186 10170 10154 10138 10126 10110 10096 10081 10069 10062 10055 10049 10046 10038 10036 10036 10036 10038 10043 10048 10057 10068 10082 10097
10490 10476 10462 10449 10436 10423 10409 10396 10382 10367 10344 10324 10304 10285 10263 10247 10231 10217 10193 10177 10155 10138 10125 10115 10098 10086 10071 10061 10047 10041 10035 10030 10026 10021 10019 10020 10020 10022 10026 10032 10042 10055 10068 10082
10470 10455 10437 10425 10414 10400 10384 10369 10355 10347 10326 10297 10274 10253 10235 10215 10195 10180 10160 10145 10125 10111 10098 10089 10075 10062 10051 10036 10030 10022 10017 10012 10008 10004 10004 10005 10005 10007 10011 10019 10027 10039 10053 10065
10450 10434 10419 10404 10390 10378 10359 10339 10323 10309 10296 10276 10254 10235 10214 10194 10169 10152 10128 10117 10103 10083 10072 10062 10051 10037 10027 10017 10011 10004 10000 9997 9992 9990 9990 9991 9992 9994 9999 10006 10013 10025 10038 10050
10428 10413 10398 10381 10364 10351 10333 10309 10292 10278 10268 10242 10218 10202 10188 10166 10142 10127 10105 10090 10076 10063 10048 10037 10028 10018 10009 10001 9994 9989 9985 9982 9979 9977 9977 9978 9980 9981 9986 9992 9999 10011 10022 10035
10406 10392 10374 10358 10340 10318 10307 10280 10258 10240 10233 10210 10189 10171 10152 10134 10116 10094 10079 10065 10051 10040 10027 10018 10007 10000 9991 9984 9978 9974 9970 9967 9966 9964 9965 9966 9968 9970 9974 9980 9989 9998 10010 10022
10386 10368 10352 10333 10314 10294 10275 10252 10232 10211 10197 10180 10158 10138 10115 10101 10088 10073 10056 10043 10029 10017 10008 9996 9986 9980 9975 9969 9963 9960 9956 9953 9952 9951 9951 9954 9957 9960 9963 9969 9977 9985 9996 10007
10364 10346 10327 10309 10288 10269 10249 10226 10204 10182 10162 10145 10127 10109 10093 10076 10059 10048 10033 10020 10006 9996 9986 9977 9970 9964 9959 9954 9949 9944 9942 9940 9939 9939 9939 9942 9945 9948 9952 9957 9966 9973 9983 9994
10341 10322 10302 10282 10262 10241 10223 10198 10176 10152 10135 10120 10099 10081 10067 10052 10037 10025 10013 10000 9988 9978 9970 9962 9955 9948 9944 9939 9936 9932 9929 9928 9928 9928 9928 9931 9934 9937 9941 9947 9955 9963 9970 9980
10318 10297 10278 10257 10235 10211 10190 10168 10146 10124 10105 10095 10075 10056 10044 10031 10017 10004 9992 9981 9969 9961 9954 9946 9939 9934 9929 9926 9923 9920 9918 9917 9916 9917 9918 9919 9922 9926 9930 9936 9942 9950 9958 9968
10294 10272 10253 10229 10204 10180 10157 10137 10117 10099 10080 10066 10051 10035 10022 10009 9995 9984 9973 9964 9954 9946 9939 9932 9926 9920 9916 9912 9910 9909 9907 9906 9905 9906 9907 9909 9912 9915 9920 9925 9931 9938 9946 9954
10269 10246 10222 10197 10174 10151 10129 10110 10091 10073 10056 10041 10028 10015 10002 9991 9976 9965 9955 9945 9937 9931 9924 9918 9913 9908 9904 9901 9899 9897 9895 9894 9895 9896 9896 9898 9901 9904 9909 9915 9921 9926 9934 9942
10240 10217 10190 10165 10144 10122 10103 10084 10066 10051 10034 10020 10004 9991 9981 9971 9962 9952 9942 9932 9923 9916 9912 9906 9901 9898 9894 9891 9889 9887 9885 9884 9884 9885 9886 9888 9890 9894 9898 9903 9910 9916 9923 9930
10207 10185 10163 10137 10115 10095 10077 10059 10045 10029 10017 10001 9987 9975 9964 9952 9943 9935 9927 9919 9911 9904 9899 9895 9890 9885 9882 9880 9878 9876 9874 9874 9873 9874 9876 9878 9880 9883 9887 9892 9898 9906 9912 9919
10174 10154 10137 10114 10093 10073 10055 10038 10021 10008 9995 9983 9971 9958 9950 9940 9932 9923 9915 9907 9899 9893 9887 9882 9879 9875 9872 9869 9867 9865 9865 9865 9865 9864 9866 9869 9871 9873 9877 9881 9887 9894 9901 9907
10144 10124 10103 10087 10070 10051 10035 10020 10004 9989 9976 9964 9953 9944 9935 9926 9918 9911 9903 9896 9888 9883 9877 9873 9870 9866 9861 9858 9856 9855 9855 9856 9856 9856 9857 9859 9861 9863 9867 9871 9876 9882 9888 9895
10117 10096 10078 10060 10046 10029 10013 9999 9986 9973 9960 9949 9938 9929 9921 9913 9907 9900 9892 9885 9879 9873 9868 9864 9860 9856 9853 9849 9847 9846 9847 9847 9847 9848 9849 9850 9852 9855 9859 9862 9866 9872 9877 9883
10092 10074 10057 10040 10024 10010 9996 9982 9969 9957 9947 9936 9925 9917 9908 9901 9893 9888 9883 9877 9871 9866 9860 9856 9852 9848 9845 9842 9840 9839 9840 9840 9840 9840 9842 9843 9845 9848 9851 9854 9857 9861 9867 9872
10072 10054 10037 10022 10007 9993 9979 9967 9956 9945 9935 9925 9915 9907 9898 9891 9885 9879 9874 9869 9863 9858 9853 9849 9845 9842 9839 9836 9835 9834 9833 9833 9833 9834 9835 9836 9838 9840 9843 9846 9849 9853 9857 9862
10052 10036 10020 10004 9991 9978 9966 9954 9943 9932 9923 9914 9905 9898 9890 9884 9877 9871 9866 9860 9855 9851 9847 9843 9839 9836 9833 9831 9830 9829 9828 9827 9827 9828 9829 9830 9831 9834 9836 9839 9842 9845 9848 9852
10035 10020 10005 9990 9978 9967 9954 9942 9932 9923 9914 9906 9898 9890 9884 9877 9871 9865 9859 9854 9849 9845 9841 9837 9834 9831 9829 9827 9826 9825 9823 9823 9823 9823 9823 9825 9826 9828 9830 9833 9835 9838 9840 9844
10020 10006 9991 9979 9964 9953 9943 9933 9923 9914 9906 9898 9892 9885 9879 9872 9866 9860 9855 9850 9846 9841 9837 9833 9830 9827 9825 9824 9822 9821 9819 9818 9818 9818 9818 9820 9821 9823 9824 9826 9828 9830 9832 9834
10003 9991 9979 9967 9957 9946 9936 9927 9917 9909 9901 9893 9887 9881 9875 9868 9862 9857 9852 9847 9842 9838 9834 9830 9827 9824 9822 9820 9819 9817 9816 9815 9814 9813 9814 9815 9816 9818 9819 9820 9821 9822 9824 9826
9994 9982 9969 9958 9948 9939 9930 9921 9913 9904 9897 9890 9884 9878 9872 9866 9860 9854 9849 9845 9840 9836 9832 9828 9825 9823 9820 9818 9816 9815 9813 9812 9811 9811 9811 9812 9812 9813 9814 9815 9815 9816 9817 9818
9984 9973 9961 9950 9941 9933 9925 9916 9907 9900 9894 9888 9881 9874 9869 9864 9858 9852 9848 9843 9839 9835 9831 9827 9824 9821 9819 9817 9815 9813 9811 9810 9809 9808 9808 9808 9808 9809 9809 9810 9810 9811 9811 9812